Regional Weather Roundup
Issued by NWS

Home | Current Version | Previous Version | Text Only | Print | Product List | Glossary Off
Versions: 1 2 3 4 5 6 7 8 9 10 11 12 13 14 15 16 17 18 19 20 21 22 23 24 25 26 27 28 29 30 31 32 33 34 35 36 37 38 39 40 41 42 43 44 45 46 47 48 49 50

000
ASUS43 KLOT 192203
RWRIL

ILLINOIS REGIONAL WEATHER ROUNDUP
NATIONAL WEATHER SERVICE CHICAGO/ROMEOVILLE IL
400 PM CST THU JAN 19 2017

NOTE: "FAIR" INDICATES FEW OR NO CLOUDS BELOW 12,000 FEET WITH NO
SIGNIFICANT WEATHER AND/OR OBSTRUCTIONS TO VISIBILITY.

* THESE STATIONS ARE NOT UNDER NWS QUALITY CONTROL. THEY ALSO MAY NOT
  REPORT WEATHER SUCH AS PRECIPITATION OR FOG.

ILZ001-002-007-009-015-016-024-192300-
NORTHWEST ILLINOIS

CITY           SKY/WX    TMP DP  RH WIND       PRES   REMARKS
MOLINE         LGT RAIN  40  37  89 E9        29.79F FOG
STERLING*      MIX PCPN  36  36 100 E9        29.83F VSB 1   WCI  29
$$

ILZ003-004-008-010-011-017-018-192300-
NORTH CENTRAL ILLINOIS

CITY           SKY/WX    TMP DP  RH WIND       PRES   REMARKS
ROCKFORD       LGT RAIN  39  36  89 SE7       29.87F FOG     WCI  34
FREEPORT*      RAIN      36  36  99 E6        29.87F WCI  31
ROCHELLE*      RAIN      37  36  98 E7        29.85F WCI  31
DE KALB*       RAIN      38  37  98 CALM      29.86F
$$

ILZ005-006-012>014-019>023-192300-
NORTHEAST ILLINOIS

CITY           SKY/WX    TMP DP  RH WIND       PRES   REMARKS
CHICAGO-OHARE  CLOUDY    41  36  82 E6        29.87F HAZE
CHICAGO-MIDWAY CLOUDY    40  35  83 E7        29.87F HAZE
AURORA         RAIN      40  38  93 E3        29.86F FOG
LANSING*       CLOUDY    40  38  93 E5        29.87F FOG
JOLIET*        LGT RAIN  41  40  95 E6        29.87F
WAUKEGAN       CLOUDY    36  35  96 SE6       29.88F FOG     WCI  31
DUPAGE AIRPORT LGT RAIN  41  35  79 E7        29.85F
KANKAKEE*      RAIN      41  39  95 E5        29.86F
WHEELING       MOCLDY    40  35  83 E6        29.89F HAZE
MORRIS*        LGT RAIN  39  38  95 E5        29.84F
ROMEOVILLE*    RAIN      39  39  99 SE5       29.87S
NORTHERLY ISL    N/A     35  33  92 E5          N/A  WCI  31
$$

LMZ740>746-192300-
SOUTHERN LAKE MICHIGAN

STATION/POSITION SKY/WX   TEMP    WIND        PRES    VSBY  WAVE
                          AIR SEA DIR/SP/G                  HT/PER
                          (F)     (DEG/KT/KT) (MB)    (MI)  (FT/S)
HARRISON CRIB              37     100/ 13/ 13   N/A
BURNHAM HARBOR             35      70/  3/  7   N/A
CALUMET HARBOR             35      60/  6/  8 1011.2F
BURNS HARBOR               40     130/  5/ 10 1012.9F
MICHIGAN CITY              40      70/  5/  7   N/A
$$

ILZ025>027-034>036-040-047-049-050-058-095>099-192300-
WEST-CENTRAL ILLINOIS

CITY           SKY/WX    TMP DP  RH WIND       PRES   REMARKS
QUINCY         CLOUDY    45  44  97 SE7       29.72S FOG
GALESBURG*     DRIZZLE   40  40 100 E8        29.77S
MACOMB*        LGT RAIN  42  42  99 E12       29.77F
JACKSONVILLE*  CLOUDY    44  43  97 E10       29.73F FOG
PITTSFIELD*    CLOUDY    45  44  99 E6        29.73S FOG
$$

ILZ028>032-037-038-041>044-048-051>054-059>061-192300-
CENTRAL ILLINOIS

CITY           SKY/WX    TMP DP  RH WIND       PRES   REMARKS
BLOOMINGTON    RAIN      41  39  93 E13       29.80F FOG
DECATUR        LGT RAIN  43  42  97 E13       29.76F
PEORIA         CLOUDY    42  41  96 E7        29.79F FOG
LACON*         DRIZZLE   38  38  99 E8        29.80S WCI  33
LINCOLN*       RAIN      43  43 100 E12       29.77F
SPRINGFIELD    LGT RAIN  45  43  93 E9        29.76F FOG
TAYLORVILLE    DRIZZLE   43  42  98 SE7       29.76F
$$

ILZ033-039-045-046-055>057-062-063-192300-
EAST-CENTRAL ILLINOIS

CITY           SKY/WX    TMP DP  RH WIND       PRES   REMARKS
CHAMPAIGN      RAIN      42  39  89 E13       29.80F FOG
RANTOUL*       LGT RAIN  42  42  97 E10       29.82F
MATTOON        LGT RAIN  44  41  89 E7        29.77F
PARIS*         DRIZZLE   43  42  95 E8        29.81F
$$

ILZ079-100>102-192300-
SOUTHWEST ILLINOIS

CITY           SKY/WX    TMP DP  RH WIND       PRES   REMARKS
ALTON          CLOUDY    45  45 100 E6        29.72  FOG
BELLEVILLE     FOG       47  47 100 E5        29.71F VSB 3/4
CAHOKIA*       FOG       47  45  93 SE5       29.72F VSB 1
SPARTA*        FOG       46  46  99 E5        29.72F VSB 1/2
$$

ILZ064>066-069>071-074>076-080>082-084>086-088>090-092>094-192300-
SOUTH-CENTRAL ILLINOIS

CITY           SKY/WX    TMP DP  RH WIND       PRES   REMARKS
CARBONDALE     FOG       49  49 100 E5        29.71F VSB 3/4
CAIRO*         FOG       54  54 100 E6        29.72S VSB 3/4
EFFINGHAM*     FOG       44  44 100 E9        29.77F VSB 1
MARION         FOG       50  50 100 CALM      29.73F VSB 1
MT. VERNON     LGT RAIN  46  46 100 E5        29.74F FOG
CENTRALIA*     CLOUDY    47  47  99 SE6       29.73S FOG
SALEM*         LGT RAIN  47  46  95 E5        29.74F VSB 3/4
METROPOLIS*    DRIZZLE   55  54  98 CALM      29.73S
$$

ILZ067-068-072-073-078-083-087-091-192300-
SOUTHEAST ILLINOIS

CITY           SKY/WX    TMP DP  RH WIND       PRES   REMARKS
LAWRENCEVILLE  CLOUDY    47  45  93 E9        29.78F FOG
FLORA*         CLOUDY    46  45  95 E6        29.75F FOG
FAIRFIELD*     CLOUDY    47  46  98 E3        29.74F
HARRISBURG*    CLOUDY    49  49 100 E5        29.73F FOG
ROBINSON*      DRIZZLE   45  43  93 E9        29.80F
CARMI*         CLOUDY    49  49  99 E7        29.74F FOG
$$

ABBREVIATIONS USED IN REMARKS
   TC - TEMPERATURE IN CELSIUS
  WCI - WIND CHILL INDEX
   HX - HEAT INDEX
  VSB - VISIBILITY
$$





USA.gov is the U.S. government's official web portal to all federal, state and local government web resources and services.